User: anonymous   Login
Location: Newark
(40.9833°N, 0.0333°W)
Time: 23:41:56
(UTC+00:00)
Language:

METEOR M2 - Orbit

View from above orbital plane
View from above orbital plane
View from above satellite
View from above satellite

Ground track
Ground track

The orbit data is extracted from the following two-line orbital elements,

1 40069U 14037A   19316.56486536 -.00000023  00000-0  91200-5 0  9990
2 40069  98.5340 357.0010 0005328 182.4304 177.6851 14.20666541277271
Epoch (UTC): 12 November 2019 13:33:24
Eccentricity: 0.0005328
inclination: 98.5340°
perigee height: 819 km
apogee height: 827 km
right ascension of ascending node: 357.0010°
argument of perigee: 182.4304°
revolutions per day: 14.20666541
mean anomaly at epoch: 177.6851°
orbit number at epoch: 27727

The dashed part of the orbit path shows where the satellite is in the earth's shadow,  

DLR